Location: Le Rouisan
(48.3833°N, 4.5000°W)
Time: 07:02:00
(UTC+00:00)

Daily predictions for brighter satellites

Satellite Brightness Start Highest point End
(mag) Time Altitude Azimuth Time Altitude Azimuth Time Altitude Azimuth
CZ-2C R/B 3.0 19:24:56 10° SSE 19:29:41 58° ENE 19:34:21 10° N
Cosmos 1437 2.6 19:28:05 10° N 19:31:06 62° ENE 19:34:05 10° SSE
Cosmos 2251 Rocket 3.7 19:30:36 10° SSW 19:35:59 83° WNW 19:41:25 10° NNE
Cosmos 1908 4.0 19:33:36 10° SSE 19:37:02 31° E 19:40:30 10° NNE
SL-08 RB Rocket 4.1 19:33:22 10° SE 19:37:43 46° ENE 19:42:08 10° N
CZ-4 R/B 4.2 19:35:17 10° SW 19:38:15 21° W 19:41:14 10° NW
MONITOR-E 3.8 19:37:36 10° SSE 19:40:11 56° ENE 19:42:48 10° N
Resurs 1-3 4.5 19:37:59 10° SE 19:41:51 31° ENE 19:45:45 10° N
USA 234 4.5 19:39:22 10° E 19:43:31 18° ESE 19:47:40 10° SSE
ATLAS 2AS CENTAUR R/B 2.9 19:36:14 10° NW 19:43:58 78° NE 19:51:02 10° SE
STARLINK-1236 4.5 19:40:26 10° WNW 19:44:25 44° N 19:48:24 10° E
STARLINK-1228 3.2 19:41:37 10° WNW 19:44:30 50° NNE 19:47:06 12° E
SeaSat 1 2.8 19:39:52 10° NNE 19:44:48 71° WNW 19:49:42 10° SW
Cosmos 1943 3.2 19:40:50 10° SSW 19:46:29 81° ESE 19:52:13 10° NNE
Ariane Rocket 3.2 19:42:47 10° S 19:47:51 78° WSW 19:52:56 10° NNW
CZ-4C R/B 4.3 19:43:22 10° NW 19:48:23 23° NNE 19:54:03 10° ENE
Cosmos 1953 2.6 19:44:30 10° SSW 19:48:27 72° W 19:52:27 10° N
Cosmos 1140 Rocket 4.2 19:47:02 10° SSE 19:51:33 31° E 19:56:03 10° NE
Cosmos 1726 2.1 19:48:17 10° S 19:52:02 88° W 19:55:47 10° N
IRIDIUM 104 4.4 19:47:15 10° N 19:52:30 85° W 19:57:43 10° S
Cosmos 1656 Rocket 3.8 19:48:05 10° NNW 19:53:47 82° WSW 19:59:21 10° SSE
STARLINK-1269 4.4 19:50:25 10° WNW 19:54:25 45° N 19:58:20 10° E
Cosmos 1190 Rocket 4.4 19:52:58 10° S 19:57:54 40° ESE 20:02:49 10° NE
Meteor 1-11 4.3 19:52:26 10° N 19:58:10 62° ENE 20:03:47 10° SSE
Cosmos 2058 Rocket 3.6 19:54:46 10° SSE 19:58:56 38° E 20:03:07 10° NNE
STARLINK-1200 4.4 19:55:24 10° WNW 19:59:25 46° N 20:03:07 12° E
Cosmos 2184 Rocket 4.1 19:53:14 10° N 19:59:33 85° W 20:05:47 10° S
COSMOS 2455 3.2 19:54:20 10° NNW 20:00:15 52° NE 20:05:12 15° ESE
Meteor 2-10 4.3 19:55:15 10° SSW 20:00:44 83° WNW 20:06:27 10° N
CZ-2C R/B 3.2 19:56:44 10° NNE 20:01:24 33° E 20:06:03 10° SSE
FREGAT/IRIS 3.1 19:58:52 10° S 20:01:32 52° W 20:04:13 10° NNW
MetOp-A 4.2 19:56:35 10° SSE 20:01:49 60° ENE 20:07:07 10° N
Cosmos 614 Rocket 4.0 19:58:37 10° S 20:03:46 62° ESE 20:08:55 10° NNE
STARLINK-1192 4.4 20:00:24 10° WNW 20:04:26 47° N 20:07:54 13° E
Cosmos 1726 Rocket 3.5 20:02:25 10° S 20:06:48 69° E 20:11:14 10° NNE
ARGOS 3.4 20:02:49 10° S 20:08:12 73° WSW 20:13:37 10° NNW
STARLINK-1244 4.3 20:05:23 10° WNW 20:09:25 48° N 20:12:41 15° E
ERBS 3.9 20:07:08 10° NW 20:10:06 27° NNE 20:12:22 14° ENE
USA 186 2.9 20:07:16 10° S 20:10:28 46° W 20:13:33 10° NNW
Resurs 01 Rocket 2.1 20:08:30 16° SE 20:11:45 43° ENE 20:15:57 10° N
SL-24 R/B 3.8 20:08:34 10° NNE 20:12:39 58° E 20:16:20 10° S
Cosmos 1825 Rocket 4.2 20:08:36 10° NNW 20:12:56 58° W 20:17:12 10° S
BREEZE-M DEB (TANK) 1.7 20:08:50 10° WSW 20:13:42 84° SSE 20:15:10 21° ENE
ATLAS CENTAUR R/B 3.8 20:12:32 10° N 20:13:43 11° NNE 20:14:54 10° NE
STARLINK-1138 4.3 20:10:23 10° WNW 20:14:25 49° NNE 20:17:28 17° E
APEX 4.4 20:11:15 10° NNW 20:17:53 81° WSW 20:22:48 13° SSE
Meteor 2-17 Rocket 4.4 20:11:45 10° N 20:17:57 86° E 20:24:07 10° S
STARLINK-1234 2.8 20:15:18 10° WNW 20:18:23 78° NNE 20:19:47 29° ESE
STARLINK-1233 3.1 20:15:16 10° WNW 20:18:24 64° NNE 20:19:56 27° E
STARLINK-1212 3.0 20:15:44 10° WNW 20:18:51 64° NNE 20:20:21 27° E
Cosmos 921 Rocket 3.0 20:14:51 10° NNW 20:19:00 60° ENE 20:21:45 20° SE
STARLINK-1105 3.0 20:16:10 10° WNW 20:19:18 65° NNE 20:20:48 27° E
STARLINK-1143 4.2 20:15:21 10° WNW 20:19:25 51° NNE 20:22:14 18° E
STARLINK-1209 2.7 20:16:26 10° WNW 20:19:30 83° NNE 20:20:51 30° ESE
STARLINK-1206 3.0 20:16:39 10° WNW 20:19:46 65° NNE 20:21:13 28° E
STARLINK-1247 3.0 20:17:06 10° WNW 20:20:13 65° NNE 20:21:39 28° E
STARLINK-1227 3.0 20:17:31 10° WNW 20:20:39 66° NNE 20:22:06 28° E
Nadezhda 1 Rocket 4.0 20:14:36 10° S 20:21:00 84° E 20:27:22 10° N
STARLINK-1218 3.0 20:18:01 10° WNW 20:21:07 66° NNE 20:22:31 29° E
STARLINK-1226 3.0 20:18:27 10° WNW 20:21:34 67° NNE 20:22:58 29° E
STARLINK-1254 3.0 20:18:52 10° WNW 20:22:01 67° NNE 20:23:24 29° E
Cosmos 2154 Rocket 4.1 20:15:48 10° N 20:22:13 89° WSW 20:28:32 10° S
STARLINK-1215 3.0 20:19:22 10° WNW 20:22:29 67° NNE 20:23:49 30° E
STARLINK-1231 3.0 20:19:48 10° WNW 20:22:56 68° NNE 20:24:15 30° E
STARLINK-1232 2.9 20:20:43 10° WNW 20:23:51 69° NNE 20:25:08 31° E
STARLINK-1217 2.9 20:21:09 10° WNW 20:24:17 69° NNE 20:25:33 32° E
STARLINK-1241 4.2 20:20:23 10° WNW 20:24:27 52° NNE 20:27:03 20° E
STARLINK-1208 2.9 20:21:34 10° WNW 20:24:43 70° NNE 20:26:00 32° E
SL-8 Rocket 4.4 20:19:02 10° N 20:25:04 45° ENE 20:29:12 20° SE
BREEZE-M DEB (TANK) 3.6 20:19:13 10° WNW 20:25:09 60° SSW 20:26:31 28° SE
STARLINK-1229 2.9 20:22:03 10° WNW 20:25:10 70° NNE 20:26:25 33° E
Cosmos 2228 3.4 20:21:02 10° SSW 20:25:19 66° WNW 20:29:40 10° N
Cosmos 407 Rocket 3.4 20:20:18 10° SSW 20:25:26 78° ESE 20:30:35 10° NNE
Cosmos 2181 Rocket 4.5 20:20:34 13° SSE 20:25:37 38° E 20:31:15 10° NNE
STARLINK-1271 2.9 20:22:30 10° WNW 20:25:38 70° NNE 20:26:52 33° E
SL-24 R/B - RUBIN 2 4.2 20:20:25 10° SSW 20:25:59 69° ESE 20:32:17 10° NE
STARLINK-1270 2.9 20:22:58 10° WNW 20:26:05 71° NNE 20:27:17 34° E
STARLINK-1154 2.9 20:23:24 10° WNW 20:26:32 71° NNE 20:27:43 34° E
Cosmos 676 Rocket 4.3 20:21:41 10° S 20:26:39 43° ESE 20:31:36 10° NE
STARLINK-1197 2.9 20:24:19 10° WNW 20:27:27 72° NNE 20:28:35 35° E
STARLINK-1189 2.9 20:24:46 10° WNW 20:27:53 73° NNE 20:29:01 35° E
STARLINK-1198 2.9 20:25:13 10° WNW 20:28:20 73° NNE 20:29:27 36° E
STARLINK-1188 2.9 20:25:40 10° WNW 20:28:47 73° NNE 20:29:53 36° E
Cosmos 1980 Rocket 4.3 20:26:11 10° N 20:28:57 14° NNE 20:31:43 10° ENE
Cosmos 1461 3.2 20:24:27 10° NW 20:28:59 77° SW 20:32:00 22° SSE
ERS-1 Rocket 4.4 20:27:20 18° E 20:29:09 21° ENE 20:32:53 10° NNE
STARLINK-1239 4.1 20:25:20 10° WNW 20:29:24 54° NNE 20:31:48 23° E
STARLINK-1235 2.8 20:26:19 10° WNW 20:29:28 88° NE 20:30:32 38° ESE
STARLINK-1187 2.8 20:26:44 10° WNW 20:29:54 81° NNE 20:30:59 38° ESE
SPOT 3 Rocket 3.7 20:25:10 10° S 20:30:23 77° WSW 20:35:37 10° NNW
STARLINK-1199 2.9 20:27:36 10° WNW 20:30:45 76° NNE 20:31:48 38° ESE
STARLINK-29 3.4 20:27:58 10° SW 20:30:59 39° SE 20:31:20 38° SE
STARLINK-1191 2.9 20:28:04 10° WNW 20:31:13 76° NNE 20:32:15 39° ESE
Cosmos 1892 4.2 20:28:37 10° NNE 20:31:38 21° ENE 20:32:00 21° ENE
STARLINK-1210 2.9 20:28:30 10° WNW 20:31:39 77° NNE 20:32:40 39° ESE
STARLINK-1221 2.9 20:28:58 10° WNW 20:32:07 77° NNE 20:33:07 40° ESE
SJ-6B 4.1 20:28:11 10° S 20:32:07 43° W 20:36:05 10° NNW
STARLINK-1219 2.8 20:29:24 10° WNW 20:32:34 78° NNE 20:33:32 40° ESE
STARLINK-1222 2.8 20:29:51 10° WNW 20:33:01 78° NNE 20:33:58 41° ESE
STARLINK-60 2.8 20:29:52 10° WSW 20:33:09 80° SSE 20:34:55 25° ENE
STARLINK-1211 2.8 20:30:19 10° WNW 20:33:28 79° NNE 20:34:24 42° ESE
STARLINK-1214 2.8 20:30:45 10° WNW 20:33:55 79° NNE 20:34:50 42° ESE
STARLINK-1245 2.8 20:31:15 10° WNW 20:34:23 80° NNE 20:35:16 43° ESE
STARLINK-1240 4.0 20:30:20 10° WNW 20:34:25 56° NNE 20:36:36 25° E
Cosmos 1953 Rocket 4.4 20:30:18 10° NNW 20:34:40 52° W 20:39:00 10° S
STARLINK-1238 2.8 20:31:40 10° WNW 20:34:50 80° NNE 20:35:43 43° ESE
SPOT 5 4.4 20:34:13 16° ENE 20:35:02 17° ENE 20:37:46 10° NNE
STARLINK-1205 2.8 20:32:36 10° WNW 20:35:44 81° NNE 20:36:34 45° ESE
STARLINK-1204 2.8 20:33:03 10° WNW 20:36:11 82° NNE 20:36:59 46° ESE
Aureole 1 Rocket 4.1 20:29:01 10° SSW 20:36:31 86° WNW 20:42:20 10° NNE
Cosmos 2366 rocket 4.4 20:32:06 10° N 20:37:58 44° ENE 20:41:05 25° SE
STARLINK-1216 4.0 20:35:19 10° WNW 20:39:26 58° NNE 20:41:24 28° E
Cosmos 1825 4.5 20:40:02 10° NE 20:41:04 12° ENE 20:41:04 12° ENE
ATLAS 5 CENTAUR R/B 1.4 20:37:59 10° SSW 20:42:09 77° SE 20:46:53 10° NE
Abrixas rocket 2.0 20:39:53 10° W 20:42:48 60° SSW 20:43:05 56° SSE
Terra 3.5 20:42:27 16° ENE 20:43:25 17° ENE 20:46:28 10° NNE
STARLINK-1237 3.9 20:40:17 10° WNW 20:44:24 60° NNE 20:46:09 32° E
STARLINK-1202 3.8 20:45:17 10° WNW 20:49:25 63° NNE 20:50:57 35° E
Cosmos 1954 Rocket 3.9 20:44:27 10° S 20:49:39 64° ESE 20:54:48 10° NNE
Cosmos 2058 3.4 20:46:16 10° N 20:50:11 41° ENE 20:50:47 38° E
Cosmos 1023 Rocket 4.5 20:45:33 10° SSW 20:50:44 85° WNW 20:55:54 10° NNE
RESURS DK-1 3.9 20:49:09 10° N 20:52:27 22° NE 20:53:17 21° ENE
FALCON 9 DEB 3.2 20:50:21 10° SW 20:53:38 56° SSE 20:53:38 56° SSE
Cosmos 1300 2.5 20:52:16 29° S 20:54:08 79° E 20:57:58 10° NNE
SPOT 1/Viking Rocket 4.1 20:52:38 32° ESE 20:54:20 42° ENE 20:59:15 10° N
SL-4 R/B 1.9 20:53:42 10° W 20:57:04 63° NNW 20:58:16 36° NE
STARLINK-1201 2.8 20:54:35 10° WNW 20:57:51 76° SSW 20:58:00 74° S
STARLINK-67 4.2 20:55:47 10° W 20:57:33 25° WSW 20:57:33 25° WSW
Cosmos 1076 Rocket 3.7 20:54:05 10° N 20:58:17 52° ENE 20:59:02 45° ESE
STARLINK-1246 3.7 20:55:15 10° WNW 20:59:24 69° NNE 21:00:32 45° E
Cosmos 1340 Rocket 3.7 20:55:37 10° SSW 20:59:33 50° WNW 21:03:29 10° N
In-Cosmos 22 Rocket 4.3 20:53:54 10° N 20:59:44 67° ENE 21:02:23 33° SSE
STARLINK-1203 3.7 20:56:06 10° WNW 21:00:19 73° NNE 21:01:25 47° E
MOS 1 Rocket 3.8 20:56:02 10° N 21:01:25 75° WNW 21:06:51 10° SSW
STARLINK-1224 3.7 21:00:13 10° WNW 21:04:23 72° NNE 21:05:18 51° E
H-2A R/B 4.4 21:02:59 10° SW 21:06:46 20° W 21:10:29 10° NW
Cosmos 1763 Rocket 3.8 21:04:13 10° NNW 21:09:17 51° ENE 21:10:29 42° ESE
STARLINK-1225 3.6 21:05:13 10° WNW 21:09:23 76° NNE 21:10:06 58° E
SAR-Lupe-2 3.4 21:07:17 10° NNE 21:10:53 85° ESE 21:11:07 77° S
STARLINK-52 4.3 21:08:16 10° SW 21:10:02 30° SW 21:10:02 30° SW
STARLINK-1230 3.5 21:10:12 10° WNW 21:14:22 79° NNE 21:14:53 66° E
BREEZE M DEB (TANK) 3.3 21:12:02 10° SW 21:15:36 58° SE 21:26:25 10° ENE
MetOp-B 4.2 21:14:22 33° S 21:16:51 79° WSW 21:22:15 10° NNW
Cosmos 540 Rocket 4.3 21:13:54 10° N 21:18:35 33° ENE 21:19:20 32° ENE
STARLINK-1243 3.5 21:15:10 10° WNW 21:19:21 84° NNE 21:19:39 75° E
Cosmos 1174 4.0 21:15:25 10° NNW 21:19:30 78° NE 21:20:14 62° ESE
Cosmos-2242 4.4 21:21:21 26° NE 21:21:21 26° NE 21:23:51 10° NNE
COSMOS 2406 3.9 21:21:00 35° E 21:21:00 35° E 21:25:17 10° NE
Meteor 2-10 Rocket 4.2 21:23:20 37° E 21:23:20 37° E 21:27:51 10° NNE
SL-08 R/B 4.5 21:17:10 10° N 21:23:17 64° ENE 21:25:05 45° SE
STARLINK-1236 3.4 21:20:09 10° WNW 21:24:19 88° NNE 21:24:26 84° E
Iridium 4 Rocket 2.8 21:20:18 10° N 21:24:32 82° E 21:24:45 78° SE
STPSAT 2 (USA 217) 4.4 21:26:05 49° SSW 21:27:17 86° ESE 21:31:48 10° NNE
USA 234 3.2 21:20:59 10° ENE 21:27:27 61° SE 21:33:54 10° SW
USA 32 4.1 21:25:39 10° N 21:30:50 57° E 21:31:15 55° E
ATLAS 2AS CENTAUR R/B 4.3 21:28:04 10° NW 21:34:13 29° WSW 21:38:49 14° SSW
STARLINK-1269 3.6 21:30:06 10° WNW 21:33:59 76° W 21:33:59 76° W
Cosmos 1408 3.7 21:34:09 10° N 21:36:38 38° NNE 21:36:38 38° NNE
Landsat 7 3.8 21:37:50 61° SSW 21:38:35 75° WSW 21:43:23 10° NNW
CZ-4C R/B 3.5 21:32:09 10° NW 21:38:40 44° NE 21:42:00 30° E
Spot 2 Rocket 3.9 21:37:05 39° SSW 21:38:44 59° WSW 21:43:48 10° NNW
STARLINK-1200 3.8 21:35:05 10° WNW 21:38:46 67° W 21:38:46 67° W
Cosmos 2369 4.1 21:33:51 10° NNW 21:39:19 47° NE 21:40:06 44° E
Cosmos 1850 Rocket 3.8 21:39:34 69° SE 21:39:44 70° ESE 21:44:54 10° NNE
Meteor 2-1 Rocket 4.2 21:38:43 40° S 21:41:02 89° E 21:47:02 10° NNE
CZ-2C R/B 3.9 21:36:59 10° N 21:41:45 38° WNW 21:46:31 10° SW
CARTOSAT-1 3.7 21:43:22 66° NNE 21:43:22 66° NNE 21:47:18 10° N
IGS 5A 3.6 21:43:20 66° WSW 21:43:21 66° W 21:47:29 10° NNW
STARLINK-1192 4.0 21:40:04 10° WNW 21:43:33 59° W 21:43:33 59° W
Cosmos 1697 Rocket 2.9 21:39:34 10° NNW 21:45:09 53° ENE 21:45:47 50° E
Cosmos 1356 Rocket 4.3 21:46:43 40° NNE 21:46:43 40° NNE 21:49:35 10° NNE
COSMOS 2455 4.0 21:40:37 10° NW 21:46:00 35° WSW 21:48:21 26° SSW
Cosmos 841 Rocket 3.6 21:41:26 10° NNW 21:46:40 59° ENE 21:46:53 59° ENE
ERBS 3.9 21:43:18 10° WNW 21:45:20 33° WNW 21:45:20 33° WNW
Resurs 01 Rocket 3.7 21:46:03 15° SW 21:48:26 22° W 21:51:56 10° NW
STARLINK-1244 4.2 21:45:03 10° WNW 21:48:20 52° W 21:48:20 52° W
Mayak 1.2 21:47:11 10° NE 21:47:46 13° NE 21:47:46 13° NE
Okean 3 Rocket 3.9 21:46:20 10° N 21:50:04 58° NNE 21:50:04 58° NNE
BREEZE M DEB (TANK) 3.6 21:47:51 10° WSW 21:52:39 48° W 21:52:39 48° W
ATLAS CENTAUR R/B 2.6 21:50:08 10° NNW 21:52:56 32° NNE 21:52:56 32° NNE
STARLINK-1138 4.5 21:50:02 10° WNW 21:53:07 46° W 21:53:07 46° W
Cosmos 1766 Rocket 4.1 21:51:22 10° N 21:54:58 52° NNE 21:54:58 52° NNE
Cosmos 468 Rocket 4.3 21:52:35 10° NNW 21:57:39 56° WSW 21:58:10 53° SW
Cosmos 1570 Rocket 3.9 21:56:53 10° NNW 22:02:17 88° WSW 22:02:21 87° SSW
SL-16 R/B 4.1 21:58:44 10° N 22:02:43 19° NE 22:04:14 17° ENE
Cosmos 1455 3.8 22:05:04 31° N 22:05:04 31° N 22:07:12 10° N
Cosmos 1892 4.2 22:03:53 10° NNW 22:07:00 33° WNW 22:07:00 33° WNW
ERS-1 Rocket 3.1 22:07:19 62° WSW 22:07:30 63° WSW 22:12:30 10° NNW
Cosmos 2322 Rocket 4.1 22:07:13 10° N 22:11:07 18° NE 22:12:34 17° ENE
Meteor 2-3 Rocket 4.0 22:05:38 10° N 22:11:01 56° ENE 22:11:01 56° ENE
Cosmos 1656 3.8 22:06:29 10° NNW 22:12:07 63° WSW 22:12:23 62° SW
SPOT 5 3.2 22:13:27 53° NW 22:13:27 53° NW 22:17:00 10° NNW
Cosmos 1980 Rocket 2.6 22:08:55 10° NNW 22:14:20 50° NE 22:14:20 50° NE
Cosmos 1825 3.9 22:13:42 10° NNW 22:15:53 32° NNW 22:15:53 32° NNW
Terra 2.2 22:21:20 61° NW 22:21:20 61° NW 22:25:24 10° NNW
ATLAS 5 CENTAUR R/B 3.9 22:23:41 10° W 22:27:23 25° NNW 22:31:30 10° NNE
Cosmos 2151 4.3 22:23:26 10° NNW 22:26:27 36° NW 22:26:27 36° NW
RESURS DK-1 4.0 22:26:43 10° NW 22:29:11 32° WNW 22:29:11 32° WNW
Cosmos 2360 4.3 22:29:40 10° NNW 22:34:51 74° NNW 22:34:51 74° NNW
Nadezhda 3 Rocket 4.0 22:35:02 67° WSW 22:35:41 73° W 22:42:00 10° N
Cosmos 1535 Rocket 4.4 22:34:21 10° N 22:40:18 83° NNE 22:40:18 83° NNE
Cosmos 2278 3.9 22:35:55 10° NNW 22:40:53 70° NNW 22:40:53 70° NNW
Cosmos 2082 Rocket 3.3 22:45:47 34° NE 22:45:47 34° NE 22:49:02 10° NNE
Cosmos 1833 Rocket 3.1 22:55:21 58° N 22:55:21 58° N 22:59:59 10° NNE
Cosmos 2344 4.3 22:45:22 10° NW 22:54:47 82° NE 22:58:33 51° SE
COSMOS 2406 4.2 23:02:57 36° W 23:04:19 42° NW 23:09:46 10° NNE
Cosmos 1934 Rocket 4.3 23:03:23 10° NNW 23:09:09 57° WNW 23:09:09 57° WNW
USA 234 3.7 23:04:05 10° NE 23:10:30 60° NNW 23:16:54 10° W
Cosmos 1605 Rocket 4.3 23:18:01 10° NNW 23:23:16 60° NW 23:23:16 60° NW
Mayak 1.0 23:22:28 10° N 23:24:21 23° NNW 23:24:21 23° NNW
CZ-4C R/B 3.0 23:20:35 10° NW 23:27:10 64° WSW 23:27:10 64° WSW
Cosmos 1697 Rocket 4.3 23:24:01 10° NW 23:27:31 26° W 23:27:31 26° W
SL-16 R/B 3.1 23:42:05 10° NNW 23:46:05 47° NNW 23:46:05 47° NNW
Cosmos 2360 Rocket 3.3 23:45:50 10° NNW 23:50:15 38° NNE 23:50:15 38° NNE
